KLM22 LFPB-EGSS

Flight info

Callsign KLM22
Flight time 0h 49m
Altitude 26000
Route OPALE DCT KESAX DCT KUNAV Y8 BANVA
Aircraft B738/M-SDE2E3FGHIRWXY/LB1

Departure

Time 2026-05-04 20:50
Airport Paris-Le Bourget International Airport (LFPB)

Arrival

Time 2026-05-04 21:39
Airport London Stansted Airport (EGSS)
Time Latitude Longitude Altitude Speed Heading
2026-05-04 20:15 48.96108 2.44113 163 ft 0 kts 205°
2026-05-04 20:38 48.96117 2.44121 163 ft 0 kts 242°
2026-05-04 20:44 48.96115 2.44106 163 ft 4 kts 265°
2026-05-04 20:44 48.96120 2.44069 164 ft 4 kts 285°
2026-05-04 20:44 48.96135 2.43996 166 ft 10 kts 283°
2026-05-04 20:45 48.96079 2.43903 165 ft 16 kts 205°
2026-05-04 20:45 48.95973 2.43833 161 ft 17 kts 204°
2026-05-04 20:45 48.95870 2.43758 158 ft 16 kts 205°
2026-05-04 20:45 48.95802 2.43660 156 ft 14 kts 272°
2026-05-04 20:46 48.95837 2.43528 161 ft 13 kts 295°
2026-05-04 20:46 48.95875 2.43403 161 ft 13 kts 294°
2026-05-04 20:46 48.95914 2.43274 159 ft 14 kts 295°
2026-05-04 20:46 48.95963 2.43122 156 ft 17 kts 301°
2026-05-04 20:47 48.96039 2.42969 152 ft 19 kts 307°
2026-05-04 20:47 48.96121 2.42819 153 ft 18 kts 310°
2026-05-04 20:47 48.96197 2.42672 158 ft 18 kts 307°
2026-05-04 20:47 48.96268 2.42538 161 ft 15 kts 309°
2026-05-04 20:48 48.96291 2.42507 160 ft 2 kts 332°
2026-05-04 20:48 48.96293 2.42506 161 ft 0 kts 336°
2026-05-04 20:48 48.96321 2.42492 160 ft 11 kts 345°
2026-05-04 20:48 48.96388 2.42507 161 ft 3 kts 29°
2026-05-04 20:49 48.96401 2.42532 161 ft 6 kts 68°
2026-05-04 20:49 48.96420 2.42927 169 ft 80 kts 86°
2026-05-04 20:49 48.96490 2.44194 176 ft 158 kts 84°
2026-05-04 20:49 48.96590 2.46011 795 ft 180 kts 85°
2026-05-04 20:50 48.96698 2.48002 1703 ft 193 kts 85°
2026-05-04 20:50 48.96818 2.50172 2327 ft 221 kts 85°
2026-05-04 20:50 48.96935 2.52608 2659 ft 243 kts 90°
2026-05-04 20:50 48.96811 2.55250 3052 ft 264 kts 96°
2026-05-04 20:51 48.96588 2.58085 3037 ft 269 kts 97°
2026-05-04 20:51 48.96358 2.60935 3272 ft 275 kts 97°
2026-05-04 20:51 48.96134 2.63847 3910 ft 279 kts 97°
2026-05-04 20:51 48.95917 2.66794 4019 ft 280 kts 96°
2026-05-04 20:52 48.95710 2.69729 4037 ft 277 kts 96°
2026-05-04 20:52 48.95604 2.72648 4076 ft 278 kts 81°
2026-05-04 20:52 48.96399 2.75249 4602 ft 279 kts 44°
2026-05-04 20:52 48.98027 2.76722 5564 ft 274 kts 13°
2026-05-04 20:53 48.99906 2.76875 5940 ft 271 kts 352°
2026-05-04 20:53 49.01796 2.76577 5983 ft 272 kts 350°
2026-05-04 20:53 49.03563 2.75613 6179 ft 272 kts 325°
2026-05-04 20:53 49.05130 2.73976 7073 ft 272 kts 323°
2026-05-04 20:54 49.06681 2.72336 8034 ft 272 kts 323°
2026-05-04 20:54 49.08241 2.70708 8654 ft 276 kts 324°
2026-05-04 20:54 49.09843 2.69059 8974 ft 279 kts 324°
2026-05-04 20:54 49.11465 2.67411 8989 ft 280 kts 324°
2026-05-04 20:55 49.13093 2.65772 8998 ft 280 kts 325°
2026-05-04 20:55 49.14736 2.64127 9229 ft 285 kts 325°
2026-05-04 20:55 49.16402 2.62467 10095 ft 285 kts 325°
2026-05-04 20:55 49.18091 2.60788 10722 ft 298 kts 325°
2026-05-04 20:56 49.19906 2.58982 10910 ft 324 kts 325°
2026-05-04 20:56 49.21867 2.57034 11102 ft 348 kts 326°
2026-05-04 20:56 49.23922 2.54994 11448 ft 364 kts 326°
2026-05-04 20:56 49.26072 2.52863 12056 ft 371 kts 326°
2026-05-04 20:57 49.28248 2.50707 12765 ft 374 kts 326°
2026-05-04 20:57 49.30445 2.48528 13499 ft 377 kts 326°
2026-05-04 20:57 49.32662 2.46326 14202 ft 381 kts 326°
2026-05-04 20:57 49.34899 2.44101 14858 ft 385 kts 326°
2026-05-04 20:58 49.37159 2.41852 15516 ft 388 kts 326°
2026-05-04 20:58 49.39436 2.39582 16170 ft 391 kts 326°
2026-05-04 20:58 49.41726 2.37296 16787 ft 395 kts 326°
2026-05-04 20:58 49.44011 2.35013 17368 ft 399 kts 326°
2026-05-04 20:59 49.46353 2.32670 17932 ft 403 kts 326°
2026-05-04 20:59 49.48716 2.30304 18480 ft 407 kts 326°
2026-05-04 20:59 49.51095 2.27919 19057 ft 409 kts 326°
2026-05-04 20:59 49.53488 2.25516 19605 ft 412 kts 326°
2026-05-04 21:00 49.55905 2.23087 20119 ft 416 kts 326°
2026-05-04 21:00 49.58339 2.20637 20602 ft 420 kts 326°
2026-05-04 21:00 49.60795 2.18162 21086 ft 423 kts 326°
2026-05-04 21:00 49.63273 2.15663 21569 ft 426 kts 326°
2026-05-04 21:01 49.65757 2.13154 22048 ft 428 kts 326°
2026-05-04 21:01 49.68231 2.10652 22484 ft 431 kts 326°
2026-05-04 21:01 49.70748 2.08103 22890 ft 434 kts 326°
2026-05-04 21:01 49.73285 2.05532 23304 ft 437 kts 326°
2026-05-04 21:02 49.75836 2.02942 23713 ft 440 kts 326°
2026-05-04 21:02 49.78401 2.00335 24112 ft 442 kts 326°
2026-05-04 21:02 49.80981 1.97708 24475 ft 445 kts 326°
2026-05-04 21:02 49.83575 1.95065 24854 ft 448 kts 326°
2026-05-04 21:03 49.86188 1.92399 25213 ft 450 kts 326°
2026-05-04 21:03 49.88812 1.89719 25573 ft 452 kts 325°
2026-05-04 21:03 49.91401 1.86929 25897 ft 454 kts 322°
2026-05-04 21:03 49.93909 1.83904 26217 ft 456 kts 320°
2026-05-04 21:04 49.96382 1.80787 26532 ft 458 kts 320°
2026-05-04 21:04 49.98858 1.77650 26833 ft 461 kts 320°
2026-05-04 21:04 50.01328 1.74550 27118 ft 463 kts 320°
2026-05-04 21:04 50.03852 1.71416 27400 ft 465 kts 320°
2026-05-04 21:05 50.06393 1.68273 27686 ft 467 kts 320°
2026-05-04 21:05 50.08931 1.65081 28038 ft 466 kts 319°
2026-05-04 21:05 50.11390 1.61797 28472 ft 464 kts 318°
2026-05-04 21:05 50.13809 1.58474 28915 ft 462 kts 317°
2026-05-04 21:06 50.16183 1.55189 29294 ft 461 kts 317°
2026-05-04 21:06 50.18592 1.51862 29641 ft 461 kts 317°
2026-05-04 21:06 50.21002 1.48548 30001 ft 461 kts 317°
2026-05-04 21:06 50.23416 1.45243 30380 ft 459 kts 318°
2026-05-04 21:07 50.25817 1.41960 30745 ft 459 kts 318°
2026-05-04 21:07 50.28226 1.38667 31082 ft 458 kts 318°
2026-05-04 21:07 50.30592 1.35429 31399 ft 458 kts 318°
2026-05-04 21:07 50.32985 1.32150 31737 ft 457 kts 318°
2026-05-04 21:08 50.35372 1.28873 32006 ft 457 kts 317°
2026-05-04 21:08 50.37777 1.25565 31989 ft 461 kts 317°
2026-05-04 21:08 50.42599 1.18920 31996 ft 459 kts 317°
2026-05-04 21:09 50.47326 1.12388 32005 ft 455 kts 317°
2026-05-04 21:09 50.49530 1.08860 31982 ft 454 kts 306°
2026-05-04 21:09 50.51168 1.04619 32013 ft 452 kts 294°
2026-05-04 21:10 50.52229 0.99987 32000 ft 451 kts 282°
2026-05-04 21:10 50.52724 0.95110 32015 ft 451 kts 277°
2026-05-04 21:10 50.53544 0.85333 31999 ft 452 kts 278°
2026-05-04 21:11 50.55140 0.75844 32012 ft 452 kts 300°
2026-05-04 21:11 50.56994 0.71831 31985 ft 454 kts 314°
2026-05-04 21:11 50.59347 0.68516 32015 ft 455 kts 319°
2026-05-04 21:12 50.61789 0.65337 31901 ft 457 kts 320°
2026-05-04 21:12 50.64243 0.62172 31235 ft 463 kts 320°
2026-05-04 21:12 50.66717 0.58950 30502 ft 461 kts 319°
2026-05-04 21:12 50.69182 0.55692 29713 ft 461 kts 319°
2026-05-04 21:13 50.71630 0.52421 28870 ft 461 kts 319°
2026-05-04 21:13 50.74076 0.49129 27979 ft 462 kts 319°
2026-05-04 21:13 50.76522 0.45834 27055 ft 463 kts 319°
2026-05-04 21:13 50.78969 0.42536 26330 ft 459 kts 319°
2026-05-04 21:14 50.81384 0.39277 25658 ft 454 kts 318°
2026-05-04 21:14 50.83740 0.36090 25003 ft 449 kts 318°
2026-05-04 21:14 50.86100 0.32892 24350 ft 444 kts 318°
2026-05-04 21:14 50.88429 0.29732 23707 ft 439 kts 318°
2026-05-04 21:15 50.90736 0.26597 23059 ft 434 kts 318°
2026-05-04 21:15 50.93018 0.23491 22419 ft 430 kts 318°
2026-05-04 21:15 50.95272 0.20421 21787 ft 425 kts 318°
2026-05-04 21:15 50.97505 0.17375 21159 ft 421 kts 318°
2026-05-04 21:16 50.99716 0.14355 20532 ft 417 kts 318°
2026-05-04 21:16 51.01906 0.11372 19946 ft 412 kts 319°
2026-05-04 21:16 51.04148 0.08641 19705 ft 401 kts 323°
2026-05-04 21:16 51.06451 0.06110 19453 ft 409 kts 324°
2026-05-04 21:17 51.08845 0.03553 19183 ft 416 kts 325°
2026-05-04 21:17 51.11249 0.00980 18904 ft 415 kts 324°
2026-05-04 21:17 51.13627 -0.01594 18627 ft 412 kts 324°
2026-05-04 21:17 51.15950 -0.04140 18363 ft 409 kts 324°
2026-05-04 21:18 51.18291 -0.06727 18097 ft 407 kts 324°
2026-05-04 21:18 51.20608 -0.09302 17834 ft 405 kts 324°
2026-05-04 21:18 51.22913 -0.11872 17572 ft 404 kts 324°
2026-05-04 21:18 51.25219 -0.14446 17311 ft 403 kts 324°
2026-05-04 21:19 51.27517 -0.17014 17048 ft 402 kts 324°
2026-05-04 21:19 51.29804 -0.19573 16788 ft 401 kts 324°
2026-05-04 21:19 51.32090 -0.22133 16528 ft 400 kts 324°
2026-05-04 21:19 51.34369 -0.24688 16269 ft 399 kts 323°
2026-05-04 21:20 51.36611 -0.27204 16012 ft 398 kts 323°
2026-05-04 21:20 51.38871 -0.29743 15754 ft 397 kts 323°
2026-05-04 21:20 51.41236 -0.32010 15467 ft 397 kts 337°
2026-05-04 21:20 51.43939 -0.32859 15234 ft 398 kts 358°
2026-05-04 21:21 51.46685 -0.32361 14981 ft 399 kts 14°
2026-05-04 21:21 51.49259 -0.30676 14743 ft 399 kts 24°
2026-05-04 21:21 51.51757 -0.28725 14472 ft 398 kts 25°
2026-05-04 21:21 51.54241 -0.26755 14208 ft 397 kts 25°
2026-05-04 21:22 51.56723 -0.24796 13950 ft 396 kts 25°
2026-05-04 21:22 51.59168 -0.22886 13692 ft 395 kts 24°
2026-05-04 21:22 51.61623 -0.20981 13424 ft 387 kts 24°
2026-05-04 21:22 51.64011 -0.19138 13175 ft 374 kts 24°
2026-05-04 21:23 51.66328 -0.17351 12931 ft 363 kts 24°
2026-05-04 21:23 51.68578 -0.15616 12701 ft 353 kts 24°
2026-05-04 21:23 51.70767 -0.13928 12478 ft 344 kts 24°
2026-05-04 21:23 51.72900 -0.12279 12251 ft 335 kts 24°
2026-05-04 21:24 51.74981 -0.10668 12041 ft 327 kts 24°
2026-05-04 21:24 51.77032 -0.09164 11832 ft 320 kts 22°
2026-05-04 21:24 51.79052 -0.07758 11633 ft 312 kts 21°
2026-05-04 21:24 51.81007 -0.06411 11432 ft 306 kts 21°
2026-05-04 21:25 51.82942 -0.05073 11235 ft 299 kts 21°
2026-05-04 21:25 51.84843 -0.03751 11044 ft 296 kts 21°
2026-05-04 21:25 51.86731 -0.02433 10862 ft 295 kts 21°
2026-05-04 21:25 51.88614 -0.01113 10668 ft 294 kts 21°
2026-05-04 21:26 51.89856 -0.00241 10545 ft 294 kts 21°
2026-05-04 21:26 51.91724 0.01072 10354 ft 290 kts 21°
2026-05-04 21:26 51.93560 0.02366 10160 ft 285 kts 21°
2026-05-04 21:26 51.95360 0.03635 9975 ft 279 kts 21°
2026-05-04 21:27 51.97126 0.04882 9796 ft 274 kts 21°
2026-05-04 21:27 51.98853 0.06052 9604 ft 268 kts 15°
2026-05-04 21:27 52.00662 0.06411 9448 ft 259 kts 358°
2026-05-04 21:27 52.02442 0.06443 9286 ft 254 kts 359°
2026-05-04 21:28 52.04197 0.06511 9124 ft 251 kts 359°
2026-05-04 21:28 52.05939 0.06597 8963 ft 249 kts 359°
2026-05-04 21:28 52.07674 0.06689 8807 ft 249 kts 359°
2026-05-04 21:28 52.09405 0.06779 8647 ft 248 kts 357°
2026-05-04 21:29 52.11040 0.06118 8452 ft 242 kts 323°
2026-05-04 21:29 52.12106 0.04104 8332 ft 235 kts 292°
2026-05-04 21:29 52.12401 0.01558 8178 ft 233 kts 264°
2026-05-04 21:29 52.11885 -0.00912 8030 ft 234 kts 236°
2026-05-04 21:30 52.10670 -0.02673 7883 ft 237 kts 207°
2026-05-04 21:30 52.09075 -0.03407 7741 ft 241 kts 191°
2026-05-04 21:30 52.07416 -0.03807 7581 ft 240 kts 191°
2026-05-04 21:30 52.05793 -0.04191 7435 ft 230 kts 191°
2026-05-04 21:31 52.02743 -0.04786 7072 ft 214 kts 174°
2026-05-04 21:31 52.01442 -0.03725 7023 ft 211 kts 142°
2026-05-04 21:31 52.00294 -0.02238 7101 ft 212 kts 144°
2026-05-04 21:32 51.99145 -0.00786 7023 ft 211 kts 144°
2026-05-04 21:32 51.97994 0.00665 6747 ft 209 kts 144°
2026-05-04 21:32 51.96833 0.02126 6358 ft 212 kts 144°
2026-05-04 21:32 51.95599 0.03389 5995 ft 209 kts 167°
2026-05-04 21:33 51.94193 0.03322 5662 ft 201 kts 195°
2026-05-04 21:33 51.92821 0.02873 5345 ft 201 kts 193°
2026-05-04 21:33 51.91446 0.02452 5029 ft 200 kts 193°
2026-05-04 21:33 51.90091 0.02043 4633 ft 196 kts 193°
2026-05-04 21:34 51.88744 0.01637 4166 ft 197 kts 193°
2026-05-04 21:34 51.87404 0.01235 3809 ft 191 kts 193°
2026-05-04 21:34 51.86155 0.00866 3545 ft 182 kts 193°
2026-05-04 21:34 51.84908 0.00496 3135 ft 182 kts 193°
2026-05-04 21:35 51.83661 0.00129 3032 ft 184 kts 193°
2026-05-04 21:35 51.82394 -0.00246 2985 ft 185 kts 193°
2026-05-04 21:35 51.81125 -0.00494 2929 ft 184 kts 175°
2026-05-04 21:35 51.79931 0.00276 2974 ft 187 kts 158°
2026-05-04 21:36 51.78885 0.01405 2916 ft 179 kts 125°
2026-05-04 21:36 51.78680 0.03290 2967 ft 175 kts 77°
2026-05-04 21:36 51.78950 0.05212 2955 ft 179 kts 77°
2026-05-04 21:36 51.79222 0.07164 2866 ft 179 kts 76°
2026-05-04 21:37 51.79500 0.09144 2557 ft 177 kts 76°
2026-05-04 21:37 51.80023 0.10857 2274 ft 167 kts 38°
2026-05-04 21:37 51.80889 0.12075 2130 ft 168 kts 40°
2026-05-04 21:37 51.81753 0.13364 1923 ft 169 kts 40°
2026-05-04 21:38 51.82641 0.14663 1864 ft 178 kts 39°
2026-05-04 21:38 51.83674 0.16146 1794 ft 219 kts 39°
2026-05-04 21:38 51.84930 0.17920 1321 ft 258 kts 39°
2026-05-04 21:38 51.86159 0.19852 836 ft 235 kts 45°
2026-05-04 21:39 51.87234 0.21562 477 ft 199 kts 41°
2026-05-04 21:39 51.88176 0.22982 333 ft 170 kts 41°
2026-05-04 21:39 51.88835 0.23990 336 ft 70 kts 41°
2026-05-04 21:39 51.89048 0.24346 336 ft 35 kts 60°
2026-05-04 21:40 51.89137 0.24672 339 ft 30 kts 68°
2026-05-04 21:40 51.89159 0.24767 338 ft 0 kts 70°
2026-05-04 21:42 51.89165 0.24796 339 ft 10 kts 73°
2026-05-04 21:42 51.89155 0.24888 345 ft 8 kts 106°
2026-05-04 21:42 51.89171 0.24969 344 ft 8 kts 47°
2026-05-04 21:43 51.89207 0.25030 342 ft 8 kts 50°
2026-05-04 21:43 51.89236 0.25099 347 ft 7 kts 58°
2026-05-04 21:43 51.89233 0.25177 351 ft 7 kts 119°
2026-05-04 21:43 51.89199 0.25242 346 ft 8 kts 131°
2026-05-04 21:44 51.89163 0.25307 348 ft 8 kts 133°
2026-05-04 21:44 51.89116 0.25386 339 ft 11 kts 134°
2026-05-04 21:44 51.89067 0.25440 338 ft 7 kts 180°
2026-05-04 21:44 51.89021 0.25401 336 ft 8 kts 223°
2026-05-04 21:45 51.89002 0.25373 334 ft 0 kts 224°